Weather Roundup
Issued by NWS

Home | Current Version | Previous Version | Graphics & Text | Print | Product List | Glossary Off
Versions: 1 2 3 4 5 6 7 8 9 10 11 12 13 14 15 16 17 18 19 20 21 22 23 24 25 26 27 28 29 30 31 32 33 34 35 36 37 38 39 40 41 42 43 44 45 46 47 48 49 50

000
NZUS93 KARX 022259
HRRWXR

CURRENT HOURLY OBSERVATIONS ACROSS
MUCH OF THE UPPER MISSISSIPPI VALLEY
NATIONAL WEATHER SERVICE LA CROSSE WI
500 PM CST FRI DEC 02 2016


...SOUTHEAST MINNESOTA...


CITY           SKY/WX    TMP DP  RH WIND       PRES   REMARKS
ROCHESTER      CLOUDY    29  22  75 W12       30.28R WCI  19
ROCHESTER/MAYO CLOUDY    30  22  71 W9        30.28R WCI  22
WINONA         CLOUDY    34  25  69 NW6       30.29R WCI  29
AUSTIN         CLOUDY    28  23  80 W10       30.28S WCI  19
ALBERT LEA     CLOUDY    34  27  75 NW7       30.29R WCI  28
DODGE CENTER   CLOUDY    28  21  74 NW6       30.27R WCI  22
PRESTON        CLOUDY    29  21  74 W6        30.28R WCI  23
OWATONNA       CLOUDY    28  21  74 W8        30.29S WCI  20
FARIBAULT      CLOUDY    28  23  80 W8        30.29R WCI  20
$$

...ELSEWHERE IN MINNESOTA...


CITY           SKY/WX    TMP DP  RH WIND       PRES   REMARKS
MINNEAPOLIS    CLOUDY    32  23  69 W7        30.28R WCI  26
INTNL FALLS    CLOUDY    23  20  88 NW5       30.22S WCI  17
DULUTH         CLOUDY    29  23  78 NW6       30.19S WCI  23
RED WING       CLOUDY    34  23  64 W6        30.27R WCI  29
REDWOOD FALLS  CLOUDY    29  20  69 N6        30.29S WCI  23
MANKATO        CLOUDY    29  21  72 W9        30.30R WCI  20
WORTHINGTON    CLOUDY    30  25  81 W9        30.28S WCI  22
FAIRMONT       CLOUDY    30  24  78 NW8       30.30S WCI  22
$$

...SOUTHWEST WISCONSIN...


CITY           SKY/WX    TMP DP  RH WIND       PRES   REMARKS
LA CROSSE      CLOUDY    35  23  61 W6        30.28R WCI  30
PRAIRIE DU CHI CLOUDY    33  23  66 W13       30.29R WCI  24
BOSCOBEL       CLOUDY    35  23  61 W6        30.29R WCI  30
LONE ROCK      NOT AVBL
PLATTEVILLE    CLOUDY    32  26  77 NW9       30.27R WCI  25
FORT MC COY    CLOUDY    32  24  72 CALM      30.27S
MAUSTON-NEW LI CLOUDY    32  24  72 W3        30.25R
VIROQUA        CLOUDY    30  25  79 NW7       30.25R WCI  23
WIS DELLS      CLOUDY    31  23  71 W6        30.24R WCI  25
$$

...ELSEWHERE IN WISCONSIN...


CITY           SKY/WX    TMP DP  RH WIND       PRES   REMARKS
MILWAUKEE      CLOUDY    35  23  61 NW7       30.24R WCI  29
MADISON        CLOUDY    32  22  66 NW7       30.26R WCI  26
GREEN BAY      CLOUDY    36  28  73 W8        30.20S WCI  30
EAU CLAIRE     NOT AVBL
BLACK RVR FLS  CLOUDY    32  22  66 W7        30.26R WCI  26
MEDFORD        CLOUDY    29  23  77 NW5       30.19R WCI  24
WAUSAU         CLOUDY    31  23  72 N7        30.19R WCI  24
WIS RAPIDS     CLOUDY    31  23  72 W6        30.24R WCI  25
MARSHFIELD     CLOUDY    30  21  69 N9        30.21R WCI  22
RICE LAKE      CLOUDY    30  24  77 W7        30.26R WCI  24
$$

...NORTHEAST IOWA...


CITY           SKY/WX    TMP DP  RH WIND       PRES   REMARKS
WATERLOO       CLOUDY    32  24  72 N9        30.28S WCI  24
DUBUQUE        CLOUDY    32  25  75 NW10      30.26F WCI  24
DECORAH        CLOUDY    30  23  74 W7        30.27R WCI  23
MASON CITY     CLOUDY    31  24  75 NW12      30.29F WCI  22
CHARLES CITY   CLOUDY    30  25  80 NW8       30.29F WCI  23
OELWEIN        CLOUDY    32  27  80 NW12      30.27F WCI  23
$$

...ELSEWHERE IN IOWA...


CITY           SKY/WX    TMP DP  RH WIND       PRES   REMARKS
DES MOINES     CLOUDY    40  32  73 N9        30.29S WCI  34
IOWA CITY      CLOUDY    37  27  67 NW12      30.31R WCI  29
FORT DODGE     CLOUDY    34  25  69 N6        30.29R WCI  29
MARSHALLTOWN   CLOUDY    34  29  82 NW6       30.29R WCI  29
CEDAR RAPIDS   CLOUDY    33  27  78 NW10      30.29R WCI  25
$$

...NORTHERN ILLINOIS...


CITY           SKY/WX    TMP DP  RH WIND       PRES   REMARKS
CHICAGO-OHARE  CLOUDY    37  25  61 NW8       30.24R WCI  31
CHICAGO-MIDWAY CLOUDY    39  24  55 NW7       30.25R WCI  34
MOLINE         CLOUDY    38  26  62 NW8       30.29R WCI  32
ROCKFORD       CLOUDY    35  24  64 NW9       30.28S WCI  28
PEORIA         CLOUDY    41  30  65 NW7       30.29R
$$

NOTE: "FAIR" INDICATES FEW OR NO CLOUDS BELOW 12,000 FEET WITH NO
SIGNIFICANT WEATHER AND/OR OBSTRUCTIONS TO VISIBILITY. WIND
SPEEDS ARE IN MILES-PER-HOUR.




USA.gov is the U.S. government's official web portal to all federal, state and local government web resources and services.